Port Aransas, TX

7:44 AM CST on February 11, 2016 (GMT -0600)
Port Aransas

Weather History for KRAS - February, 2013

Change the Weather History Date:

Monday, February 11, 2013

  Actual Average (KCRP) Record (KCRP)
Temperature  
Mean Temperature 60 °F 60 °F  
Max Temperature 64 °F 70 °F 84 °F (2000)
Min Temperature 57 °F 50 °F 24 °F (1899)
Degree Days  
Heating Degree Days 4 7  
Month to date heating degree days 81  
Since 1 July heating degree days 708  
Cooling Degree Days 0 2  
Month to date cooling degree days 15  
Year to date cooling degree days 45  
Growing Degree Days 10 (Base 50)    
Moisture  
Dew Point 56 °F    
Average Humidity 86    
Maximum Humidity 100    
Minimum Humidity 72    
Precipitation  
Precipitation 0.00 in 0.08 in 1.45 in (2010)
Month to date precipitation 0.66  
Year to date precipitation 2.20  
Snow  
Snow 0.00 in - - ()
Month to date snowfall  
Since 1 July snowfall  
Snow Depth -    
Sea Level Pressure  
Sea Level Pressure 29.92 in    
Wind  
Wind Speed 16 mph (NE)    
Max Wind Speed 22 mph    
Max Gust Speed 29 mph    
Visibility 7 miles    
Events Rain , Thunderstorm    
T = Trace of Precipitation, MM = Missing Value Source: NWS Daily Summary

Daily Weather History Graph

Daily Weather History Graph

Search for Another Location

Airport or City:

Trip Planner

Search our weather history database for the weather conditions in past years. The results will help you decide how hot, cold, wet, or windy it might be!

Date:

Astronomy

Feb. 11, 2013 Rise Set
Actual Time 7:08 AM CST 6:16 PM CST
Civil Twilight 6:44 AM CST 6:41 PM CST
Nautical Twilight 6:16 AM CST 7:08 PM CST
Astronomical Twilight 5:49 AM CST 7:36 PM CST
Moon 7:46 AM CST 7:59 PM CST
Length of Visible Light 11h 56m
Length of Day
11h 08m
Waxing Crescent, 3% of the Moon is Illuminated
Feb 11
Waxing Crescent
Feb 17
First Quarter
Feb 25
Full
Mar 4
Last Quarter
Mar 11
New

Hourly Weather History & Observations

Time (CST) Temp. Dew Point Humidity Pressure Visibility Wind Dir Wind Speed Gust Speed Precip Events Conditions
12:15 AM 62.6 °F 55.4 °F 77% 29.93 in 10.0 mi NNE 15.0 mph - N/A   Overcast
12:35 AM 64.4 °F 55.4 °F 73% 29.92 in 10.0 mi NE 13.8 mph 19.6 mph N/A   Overcast
12:55 AM 64.4 °F 55.4 °F 73% 29.92 in 10.0 mi NNE 11.5 mph - N/A   Overcast
1:15 AM 62.6 °F 55.4 °F 77% 29.93 in 10.0 mi NNE 11.5 mph - N/A Thunderstorm Overcast
1:35 AM 62.6 °F 55.4 °F 77% 29.93 in 10.0 mi NNE 13.8 mph - N/A   Overcast
1:55 AM 62.6 °F 55.4 °F 77% 29.92 in 10.0 mi NNE 15.0 mph 19.6 mph N/A Rain Light Rain
2:15 AM 62.6 °F 53.6 °F 72% 29.93 in 10.0 mi NNE 11.5 mph 18.4 mph N/A   Overcast
2:35 AM 62.6 °F 53.6 °F 72% 29.93 in 10.0 mi NNE 11.5 mph 18.4 mph N/A   Overcast
2:55 AM 62.6 °F 53.6 °F 72% 29.91 in 10.0 mi NE 16.1 mph 20.7 mph N/A   Overcast
3:15 AM 62.6 °F 53.6 °F 72% 29.89 in 10.0 mi NE 13.8 mph 18.4 mph N/A   Overcast
3:35 AM 62.6 °F 53.6 °F 72% 29.89 in 10.0 mi NE 13.8 mph - N/A   Overcast
3:55 AM 62.6 °F 53.6 °F 72% 29.90 in 10.0 mi NE 18.4 mph - N/A   Overcast
4:15 AM 62.6 °F 55.4 °F 77% 29.90 in 10.0 mi NNE 15.0 mph - N/A   Overcast
4:35 AM 62.6 °F 53.6 °F 72% 29.91 in 10.0 mi NNE 13.8 mph - N/A   Overcast
4:55 AM 62.6 °F 55.4 °F 77% 29.91 in 10.0 mi NE 16.1 mph 24.2 mph N/A   Overcast
5:15 AM 62.6 °F 55.4 °F 77% 29.90 in 10.0 mi NE 15.0 mph 20.7 mph N/A   Overcast
5:35 AM 62.6 °F 53.6 °F 72% 29.91 in 10.0 mi NNE 16.1 mph 20.7 mph N/A   Overcast
5:55 AM 60.8 °F 51.8 °F 72% 29.93 in 10.0 mi NNE 18.4 mph 21.9 mph N/A   Overcast
6:15 AM 60.8 °F 51.8 °F 72% 29.93 in 10.0 mi NE 15.0 mph - N/A   Overcast
6:35 AM 60.8 °F 53.6 °F 77% 29.93 in 10.0 mi NE 16.1 mph 20.7 mph N/A Rain Light Rain
6:55 AM 60.8 °F 53.6 °F 77% 29.92 in 10.0 mi NE 16.1 mph 23.0 mph N/A   Overcast
7:15 AM 60.8 °F 53.6 °F 77% 29.93 in 10.0 mi NE 18.4 mph 26.5 mph N/A   Overcast
7:35 AM 60.8 °F 53.6 °F 77% 29.93 in 10.0 mi NE 16.1 mph 26.5 mph N/A   Overcast
7:55 AM 60.8 °F 53.6 °F 77% 29.93 in 10.0 mi NE 16.1 mph 25.3 mph N/A   Overcast
8:15 AM 60.8 °F 53.6 °F 77% 29.93 in 10.0 mi NE 18.4 mph 28.8 mph N/A   Overcast
8:35 AM 60.8 °F 55.4 °F 82% 29.94 in 10.0 mi ENE 19.6 mph 25.3 mph N/A   Overcast
8:55 AM 60.8 °F 53.6 °F 77% 29.95 in 10.0 mi ENE 17.3 mph 23.0 mph N/A   Overcast
9:15 AM 60.8 °F 55.4 °F 82% 29.96 in 5.0 mi ENE 15.0 mph 25.3 mph N/A   Haze
9:35 AM 60.8 °F 55.4 °F 82% 29.97 in 10.0 mi ENE 20.7 mph 25.3 mph N/A   Overcast
9:55 AM 60.8 °F 55.4 °F 82% 29.98 in 10.0 mi ENE 17.3 mph 23.0 mph N/A   Overcast
10:15 AM 60.8 °F 55.4 °F 82% 29.98 in 10.0 mi NE 13.8 mph 25.3 mph N/A   Overcast
10:35 AM 60.8 °F 55.4 °F 82% 29.98 in 10.0 mi ENE 16.1 mph 24.2 mph N/A   Overcast
10:55 AM 60.8 °F 55.4 °F 82% 29.98 in 7.0 mi ENE 15.0 mph 25.3 mph N/A   Overcast
11:15 AM 60.8 °F 57.2 °F 88% 29.97 in 5.0 mi ENE 19.6 mph 24.2 mph N/A   Overcast
11:35 AM 60.8 °F 57.2 °F 88% 29.97 in 7.0 mi ENE 18.4 mph 25.3 mph N/A   Overcast
11:55 AM 60.8 °F 57.2 °F 88% 29.96 in 5.0 mi ENE 18.4 mph 24.2 mph N/A   Overcast
12:15 PM 60.8 °F 57.2 °F 88% 29.96 in 5.0 mi NE 18.4 mph 23.0 mph N/A   Overcast
12:35 PM 60.8 °F 57.2 °F 88% 29.95 in 5.0 mi ENE 17.3 mph - N/A   Overcast
12:55 PM 60.8 °F 59.0 °F 94% 29.95 in 5.0 mi NE 17.3 mph 20.7 mph N/A   Overcast
1:15 PM 60.8 °F 59.0 °F 94% 29.93 in 5.0 mi NE 18.4 mph 23.0 mph N/A   Overcast
1:35 PM 60.8 °F 59.0 °F 94% 29.92 in 5.0 mi ENE 17.3 mph 24.2 mph N/A   Overcast
1:55 PM 60.8 °F 59.0 °F 94% 29.92 in 5.0 mi NE 16.1 mph 25.3 mph N/A   Overcast
2:15 PM 60.8 °F 59.0 °F 94% 29.91 in 5.0 mi NE 16.1 mph 24.2 mph N/A   Overcast
2:35 PM 60.8 °F 59.0 °F 94% 29.90 in 5.0 mi NE 18.4 mph 24.2 mph N/A   Overcast
2:55 PM 60.8 °F 59.0 °F 94% 29.89 in 5.0 mi NE 18.4 mph 25.3 mph N/A   Overcast
3:15 PM 60.8 °F 59.0 °F 94% 29.89 in 4.0 mi NE 20.7 mph - N/A   Overcast
3:35 PM 60.8 °F 59.0 °F 94% 29.88 in 4.0 mi NE 19.6 mph 27.6 mph N/A   Overcast
3:55 PM 60.8 °F 59.0 °F 94% 29.88 in 3.0 mi NE 18.4 mph 25.3 mph N/A   Overcast
4:55 PM 60.8 °F 59.0 °F 94% 29.88 in 3.0 mi NE 20.7 mph - N/A   Overcast
5:15 PM 60.8 °F 59.0 °F 94% 29.89 in 2.5 mi NE 16.1 mph 23.0 mph N/A   Overcast
5:35 PM 60.8 °F 59.0 °F 94% 29.89 in 3.0 mi NE 19.6 mph 25.3 mph N/A   Overcast
5:55 PM 60.8 °F 59.0 °F 94% 29.90 in 2.0 mi NE 15.0 mph 21.9 mph N/A   Overcast
6:15 PM 59.0 °F 59.0 °F 100% 29.90 in 2.5 mi NNE 16.1 mph 26.5 mph N/A   Overcast
6:35 PM 59.0 °F 59.0 °F 100% 29.89 in 3.0 mi NE 15.0 mph 21.9 mph N/A   Overcast
6:55 PM 59.0 °F 59.0 °F 100% 29.90 in 3.0 mi NE 16.1 mph - N/A   Overcast
7:15 PM 59.0 °F 59.0 °F 100% 29.91 in 4.0 mi NNE 17.3 mph 23.0 mph N/A   Overcast
7:55 PM 59.0 °F 57.2 °F 94% 29.91 in 4.0 mi NE 16.1 mph 21.9 mph N/A   Overcast
8:15 PM 59.0 °F 59.0 °F 100% 29.91 in 5.0 mi NNE 17.3 mph 24.2 mph N/A   Overcast
8:35 PM 59.0 °F 57.2 °F 94% 29.91 in 5.0 mi NE 17.3 mph 27.6 mph N/A   Overcast
8:55 PM 59.0 °F 57.2 °F 94% 29.91 in 3.0 mi NE 16.1 mph 23.0 mph N/A   Overcast
9:15 PM 59.0 °F 57.2 °F 94% 29.91 in 4.0 mi NE 21.9 mph - N/A   Light Drizzle
9:35 PM 59.0 °F 57.2 °F 94% 29.92 in 5.0 mi NE 17.3 mph 26.5 mph N/A   Overcast
9:55 PM 59.0 °F 57.2 °F 94% 29.93 in 5.0 mi NE 17.3 mph - N/A   Overcast
10:15 PM 57.2 °F 57.2 °F 100% 29.93 in 5.0 mi NE 17.3 mph 24.2 mph N/A   Overcast
10:35 PM 57.2 °F 57.2 °F 100% 29.93 in 5.0 mi NE 16.1 mph 20.7 mph N/A   Overcast
10:55 PM 59.0 °F 57.2 °F 94% 29.92 in 5.0 mi ENE 17.3 mph 23.0 mph N/A   Overcast
11:15 PM 59.0 °F 57.2 °F 94% 29.91 in 5.0 mi NE 17.3 mph 25.3 mph N/A   Overcast
11:35 PM 59.0 °F 57.2 °F 94% 29.91 in 5.0 mi NE 17.3 mph 24.2 mph N/A   Overcast
11:55 PM 59.0 °F 57.2 °F 94% 29.91 in 5.0 mi ENE 18.4 mph 23.0 mph N/A   Overcast